COSMOS 2251 DEB, 34998

Orbit data source: Space-Track

COSMOS 2251 DEB, 34998 is space debris in LEO originally from a launch on Wed, 16 Jun 1993 UTC launched from the Plesetsk Missile And Space Complex (PKMTR). The debris from Iridium 33, an American commercial communications satellite, has been tracked extensively since its accidental collision with the defunct Russian satellite Cosmos 2251 in 2009. This event, occurring at high speed in low Earth orbit (LEO), generated thousands of pieces of space debris, significantly increasing the risk of further collisions. The Iridium 33 debris cloud has impacted space traffic management and orbital debris mitigation strategies, making it a subject of ongoing study in space situational awareness.

Loading next visibility...
Identifier
34998, 1993-036AFW
Orbit
LEO
Country
Flag of CISCIS
Related business
Manufacturer
Unknown
Mission
Spacecraft
Bus & Motor
Unknown
Mass
Unknown
Launch date (UTC)
1993-06-16 (32 years ago)
Launch vehicle
Unknown
Launch site
Plesetsk Missile And Space Complex (PKMTR)
Object type
Payload
Rocket body
Debris
Shape & HBR
Unknown shape, 0.1 m
Radar Cross Section
Small (<0.1 m²)

Expand to show TLE details & history
Last TLE update: 9 hours ago

TLE from 9 hours ago
0 COSMOS 2251 DEB
1 34998U 93036AFW 25299.85454133  .00003371  00000-0  89398-3 0  9998
2 34998  74.0111 248.0343 0019235  41.5131 349.9894 14.48985812867410
Epoch: 2025-10-26T20:30Z
TLE epoch observation values (Epoch: 2025-10-26T20:30:32.370Z)
Latitude
30.17661°
Longitude
-85.52644°
Altitude
718.979 km
Speed
7.506 km/s
True Right ascension
17h 10m 17s
True Declination
30° 01' 36"
Sunlit
Object was in daylight at epoch
Visualization orbit readout
Latitude
Unknown
Longitude
Unknown
Altitude
Unknown
Speed
Unknown
Apparent Right ascension
Unknown
Apparent Declination
Unknown
Sunlit
N/A
Visualization observer readout
Local Sidereal Time
00:47:30
Azimuth
Unknown
Elevation
Unknown
Doppler factor
Unknown
Orbital elements
Apogee altitude
740.241 km
Perigee altitude
712.909 km
Semi-major axis
7,104.712 km
Eccentricity
0.00192
Inclination
74.0111°
RAAN
248.0343°
Arg. of periapsis
41.5131°
True anomaly
349.95099°
Mean anomaly
349.9894°
Eccentric anomaly
349.97021°
Mean motion
3.62429 °/min
Orbital period
99.33 mins
BSTAR
0.00089398
Loading maneuver chart data...
Computing Atmospheric mass density...

Documentation

Showing up to 5 results
|